Date String (YYYY-MM-DD hh:mm:ss) UTC,Instrument flags,Ambient pressure (hPa),Sample flow (lpm),Bypass flow (lpm),Sample temperature (°C),Ambient temperature (°C),ASC tube jacket temperature (°C),LED temperature (°C),Box temperature (°C),Sample RH (%),Span deviation,Mass concentration (μg/m³),Mass concentration (μg/m³),Mass concentration (μg/m³)
DateTimeUTC,F1_M11,P_M11,Q1_M11,Q2_M11,T1_M11,T2_M11,T3_M11,T4_M11,T5_M11,U1_M11,ZSPAN_M11,X0_M11,X2_M11,X1_M11
2022-07-17 23:00:00,,0828.1,5.00,0.00,29.3,27.0,00.0,37.8,31.1,20.8,0000.0,0014.24,0007.28,0006.43
2022-07-17 23:01:00,,0828.1,5.00,0.00,29.2,27.1,00.0,37.8,31.0,20.7,0000.0,0014.22,0007.27,0006.42
2022-07-17 23:02:00,,0828.1,5.00,0.00,29.2,27.2,00.0,37.8,31.0,20.6,0000.0,0014.04,0007.25,0006.43
2022-07-17 23:03:00,,0828.1,5.00,0.00,29.2,27.5,00.0,37.8,31.1,20.6,0000.0,0013.69,0007.22,0006.44
2022-07-17 23:04:00,,0828.1,4.99,0.00,29.2,27.7,00.0,37.8,31.1,20.5,0000.0,0014.50,0007.29,0006.46
2022-07-17 23:05:00,,0828.1,5.00,0.00,29.3,27.9,00.0,37.9,31.2,20.4,0000.0,0014.79,0007.31,0006.46
2022-07-17 23:06:00,,0828.1,5.02,0.00,29.3,27.9,00.0,37.9,31.3,20.5,0000.0,0014.30,0007.28,0006.46
2022-07-17 23:07:00,,0828.1,4.99,0.00,29.3,27.4,00.0,37.8,31.2,20.5,0000.0,0014.68,0007.27,0006.44
2022-07-17 23:08:00,,0828.1,5.00,0.00,29.3,27.1,00.0,37.8,31.1,20.5,0000.0,0015.24,0007.25,0006.42
2022-07-17 23:09:00,,0828.1,4.99,0.00,29.2,27.2,00.0,37.8,31.1,20.5,0000.0,0015.07,0007.21,0006.39
2022-07-17 23:10:00,,0828.1,5.00,0.00,29.2,27.3,00.0,37.8,31.1,20.8,0000.0,0015.08,0007.17,0006.38
2022-07-17 23:11:00,,0828.1,4.99,0.00,29.2,27.6,00.0,37.8,31.1,20.5,0000.0,0015.21,0007.16,0006.36
2022-07-17 23:12:00,,0828.1,5.01,0.00,29.2,27.8,00.0,37.8,31.2,20.8,0000.0,0015.96,0007.19,0006.35
2022-07-17 23:13:00,,0828.1,5.00,0.00,29.3,28.0,00.0,37.9,31.3,21.2,0000.0,0016.57,0007.17,0006.32
2022-07-17 23:14:00,,0828.1,5.00,0.00,29.3,27.6,00.0,37.8,31.2,21.3,0000.0,0016.24,0007.14,0006.27
2022-07-17 23:15:00,,0828.1,5.01,0.00,29.3,27.1,00.0,37.8,31.1,21.1,0000.0,0015.52,0007.06,0006.23
2022-07-17 23:16:00,,0828.0,5.00,0.00,29.2,27.0,00.0,37.8,31.1,20.8,0000.0,0015.10,0006.97,0006.20
2022-07-17 23:17:00,,0828.0,5.00,0.00,29.2,27.2,00.0,37.8,31.0,20.5,0000.0,0015.07,0006.97,0006.17
2022-07-17 23:18:00,,0828.1,4.99,0.00,29.2,27.4,00.0,37.8,31.0,20.7,0000.0,0014.27,0006.92,0006.16
2022-07-17 23:19:00,,0828.1,5.00,0.00,29.2,27.6,00.0,37.8,31.1,20.4,0000.0,0013.79,0006.92,0006.18
2022-07-17 23:20:00,,0828.0,5.00,0.00,29.3,27.9,00.0,37.9,31.2,20.4,0000.0,0013.64,0006.95,0006.18
2022-07-17 23:21:00,,0828.0,5.01,0.00,29.3,27.8,00.0,37.8,31.2,20.5,0000.0,0013.54,0007.00,0006.17
2022-07-17 23:22:00,,0828.0,5.00,0.00,29.3,27.2,00.0,37.8,31.2,20.6,0000.0,0013.14,0006.99,0006.17
2022-07-17 23:23:00,,0828.0,4.99,0.00,29.2,27.0,00.0,37.8,31.1,20.8,0000.0,0012.47,0006.94,0006.15
2022-07-17 23:24:00,,0828.0,5.00,0.00,29.2,27.1,00.0,37.8,31.0,20.7,0000.0,0011.77,0006.93,0006.15
2022-07-17 23:25:00,,0828.0,5.00,0.00,29.2,27.3,00.0,37.8,31.0,21.2,0000.0,0011.67,0006.93,0006.15
2022-07-17 23:26:00,,0828.0,5.01,0.00,29.2,27.5,00.0,37.8,31.1,21.1,0000.0,0012.36,0006.96,0006.15
2022-07-17 23:27:00,,0827.9,5.00,0.00,29.2,27.7,00.0,37.8,31.2,20.3,0000.0,0012.54,0006.97,0006.15
2022-07-17 23:28:00,,0828.0,5.01,0.00,29.3,28.0,00.0,37.9,31.2,20.6,0000.0,0012.57,0006.95,0006.16
2022-07-17 23:29:00,,0828.0,4.99,0.00,29.3,27.9,00.0,37.8,31.3,21.3,0000.0,0012.73,0006.98,0006.16
2022-07-17 23:30:00,,0828.0,5.00,0.00,29.3,27.3,00.0,37.8,31.2,21.7,0000.0,0012.92,0006.99,0006.14
2022-07-17 23:31:00,,0827.9,5.01,0.00,29.3,27.1,00.0,37.8,31.1,21.7,0000.0,0013.23,0006.99,0006.14
2022-07-17 23:32:00,,0827.9,5.00,0.00,29.2,27.2,00.0,37.8,31.1,21.9,0000.0,0013.37,0006.90,0006.11
2022-07-17 23:33:00,,0828.0,5.00,0.00,29.2,27.4,00.0,37.8,31.0,22.0,0000.0,0013.52,0006.92,0006.09
2022-07-17 23:34:00,,0828.0,5.00,0.00,29.2,27.6,00.0,37.8,31.1,21.9,0000.0,0013.42,0006.91,0006.08
2022-07-17 23:35:00,,0828.0,4.99,0.00,29.2,27.8,00.0,37.8,31.2,21.6,0000.0,0013.19,0006.87,0006.06
2022-07-17 23:36:00,,0827.9,5.01,0.00,29.3,27.7,00.0,37.8,31.2,21.1,0000.0,0013.08,0006.86,0006.06
2022-07-17 23:37:00,,0827.9,4.99,0.00,29.2,27.1,00.0,37.8,31.1,21.0,0000.0,0012.44,0006.85,0006.06
2022-07-17 23:38:00,,0827.9,5.02,0.00,29.2,27.0,00.0,37.8,31.1,20.9,0000.0,0012.61,0006.86,0006.06
2022-07-17 23:39:00,,0827.8,5.01,0.00,29.2,27.1,00.0,37.8,31.0,21.1,0000.0,0012.60,0006.88,0006.06
2022-07-17 23:40:00,,0827.9,4.99,0.00,29.2,27.3,00.0,37.8,31.0,21.3,0000.0,0012.65,0006.90,0006.05
2022-07-17 23:41:00,,0827.9,5.01,0.00,29.2,27.5,00.0,37.8,31.0,20.8,0000.0,0012.69,0006.91,0006.05
2022-07-17 23:42:00,,0828.0,4.99,0.00,29.2,27.7,00.0,37.8,31.1,20.3,0000.0,0012.19,0006.93,0006.07
2022-07-17 23:43:00,,0827.9,5.00,0.00,29.2,28.0,00.0,37.9,31.2,20.0,0000.0,0011.93,0007.00,0006.10
2022-07-17 23:44:00,,0827.9,5.01,0.00,29.3,27.9,00.0,37.8,31.3,20.5,0000.0,0011.84,0006.99,0006.12
2022-07-17 23:45:00,,0827.9,5.00,0.00,29.3,27.2,00.0,37.8,31.2,20.8,0000.0,0012.04,0007.06,0006.14
2022-07-17 23:46:00,,0827.9,5.00,0.00,29.2,27.1,00.0,37.8,31.1,20.7,0000.0,0012.21,0007.12,0006.16
2022-07-17 23:47:00,,0827.8,5.00,0.00,29.2,27.2,00.0,37.8,31.0,21.2,0000.0,0012.36,0007.16,0006.18
2022-07-17 23:48:00,,0827.8,5.00,0.00,29.2,27.3,00.0,37.8,31.0,21.1,0000.0,0013.34,0007.16,0006.19
2022-07-17 23:49:00,,0828.0,5.00,0.00,29.2,27.6,00.0,37.8,31.1,20.6,0000.0,0012.59,0007.17,0006.18
2022-07-17 23:50:00,,0827.8,5.01,0.00,29.2,27.8,00.0,37.8,31.2,20.3,0000.0,0012.88,0007.18,0006.19
2022-07-17 23:51:00,,0827.8,4.99,0.00,29.3,27.9,00.0,37.8,31.3,20.4,0000.0,0013.03,0007.17,0006.21
2022-07-17 23:52:00,,0827.9,5.00,0.00,29.3,27.4,00.0,37.8,31.2,20.6,0000.0,0012.95,0007.15,0006.21
2022-07-17 23:53:00,,0827.9,5.00,0.00,29.2,27.0,00.0,37.8,31.1,21.2,0000.0,0012.92,0007.12,0006.20
2022-07-17 23:54:00,,0827.9,5.00,0.00,29.2,27.0,00.0,37.8,31.1,21.4,0000.0,0012.87,0007.09,0006.19
2022-07-17 23:55:00,,0827.9,5.00,0.00,29.2,27.2,00.0,37.8,31.0,21.6,0000.0,0012.84,0007.07,0006.19
2022-07-17 23:56:00,,0827.9,5.00,0.00,29.2,27.4,00.0,37.8,31.0,21.8,0000.0,0012.69,0007.03,0006.18
2022-07-17 23:57:00,,0827.9,5.00,0.00,29.2,27.6,00.0,37.8,31.1,22.2,0000.0,0012.60,0007.00,0006.18
2022-07-17 23:58:00,,0827.8,5.00,0.00,29.2,27.9,00.0,37.8,31.2,22.3,0000.0,0012.56,0006.98,0006.17
2022-07-17 23:59:00,,0827.8,5.00,0.00,29.3,28.0,00.0,37.9,31.3,22.3,0000.0,0012.00,0006.97,0006.14
